Probability
0 0 0 0 0 0 0 0 0 0 0 0 0 0 0 0 0 0 0 0 0 0 0 0 0 0 0 0 0 0 0 0 0 0 0 0 0 0 0 0 0 0 0 0
0 0 0 0 0 0 0 0 0 0 0 0 0 0 0 0 0 0 0 0 0 0 0 0 0 0 0 0 0 0 0 0 0 0 0 0 0 0 0 0 0 0 0 0
0 0 0 0 0 0 0 0 0 0 0 0 0 0 0 0 0 0 0 0 0 0 0 0 0 0 0 0 0 0 0 0 0 0 0 0 0 0 0 0 0 0 0 0
0 0 0 0 0 0 0 0 0 0 0 0 0 0 0 0 0 0 0 0 0 0 0 0 0 0 0 0 0 0 0 0 0 0 0 0 0 0 0 0 0 0 0 0
0 0 0 0 0 0 0 0 0 0 0 0 0 0 0 0 0 0 0 0 0 0 0 0 0 0 0 0 0 0 0 0 0 0 0 0 0 0 0 0 0 0 0 0
0 0 0 0 0 0 0 0 0 0 0 0 0 0 0 0 0 0 0 0 0 0 0 0 0 0 0 0 0 0 0 0 0 0 0 0 0 0 0 0 0 0 0 0
0 0 0 0 0 0 0 0 0 0 0 0 0 0 0 0 0 0 0 0 0 0 0 0 0 0 0 0 0 0 0 0 0 0 0 0 0 0 0 0 0 0 0 0
0 0 0 0 0 0 0 0 0 0 0 0 0 0 0 0 0 0 0 0 0 0 0 0 0 0 0 0 0 0 0 0 0 1 2 1 0 0 0 0 0 0 0 0
0 0 0 0 0 0 0 0 0 0 0 0 0 0 0 0 0 0 0 0 0 0 0 0 0 0 0 0 0 0 0 0 0 1 3 3 1 0 0 0 0 0 0 0
0 0 0 0 0 0 0 0 0 0 0 0 0 0 0 0 0 0 0 0 0 0 0 0 0 0 0 0 0 0 0 1 1 1 2 3 1 0 0 0 0 0 0 0
0 0 0 0 0 0 0 0 0 0 0 0 0 0 0 0 0 0 0 0 0 0 0 0 0 0 0 0 0 0 0 1 2 1 1 1 1 0 0 0 0 0 0 0
0 0 0 0 0 0 0 0 0 0 0 0 0 0 0 0 0 0 0 0 0 0 0 0 0 0 0 0 0 0 0 1 2 2 2 2 1 0 0 0 0 0 0 0
0 0 0 0 0 0 0 0 0 0 0 0 0 0 0 0 0 0 0 0 0 0 0 0 0 0 0 0 0 0 0 0 1 2 2 2 1 0 0 0 0 0 0 0
0 0 0 0 0 0 0 0 0 0 0 0 0 0 0 0 0 0 0 0 0 0 0 0 0 0 0 0 0 0 0 0 0 1 1 1 0 0 0 0 0 0 0 0
0 0 0 0 0 0 0 0 0 0 0 0 0 0 0 0 0 0 0 0 0 0 0 0 0 0 0 0 0 0 0 0 0 0 0 0 0 0 0 0 0 0 0 0
0 0 0 0 0 0 0 0 0 0 0 0 0 0 0 0 0 0 0 0 0 0 0 0 0 0 0 0 0 0 0 0 0 0 0 0 0 0 0 0 0 0 0 0
0 0 0 0 0 0 0 0 0 0 0 0 0 0 0 0 0 0 0 0 0 0 0 0 0 0 0 0 0 0 0 0 0 0 0 0 0 0 0 0 0 0 0 0
0 0 0 0 0 0 0 0 0 0 0 0 0 0 0 0 0 0 0 0 0 0 0 0 0 0 0 0 0 0 0 0 0 0 0 0 0 0 0 0 0 0 0 0
0 0 0 0 0 0 0 0 0 0 0 0 0 0 0 0 0 0 0 0 0 0 0 0 0 0 0 0 0 0 0 0 0 0 0 0 0 0 0 0 0 0 0 0
0 0 0 0 0 0 0 0 0 0 0 0 0 0 0 0 0 0 0 0 0 0 0 0 0 0 0 0 0 0 0 0 0 0 0 0 0 0 0 0 0 0 0 0
0 0 0 0 0 0 0 0 0 0 0 0 0 0 0 0 0 0 0 0 0 0 0 0 0 0 0 0 0 0 0 0 0 0 0 0 0 0 0 0 0 0 0 0
0 0 0 0 0 0 0 0 0 0 0 0 0 0 0 0 0 0 0 0 0 0 0 0 0 0 0 0 0 0 0 0 0 0 0 0 0 0 0 0 0 0 0 0
0 0 0 0 0 0 0 0 0 0 0 0 0 0 0 0 0 0 0 0 0 0 0 0 0 0 0 0 0 0 0 0 0 0 0 0 0 0 0 0 0 0 0 0
0 0 0 0 0 0 0 0 0 0 0 0 0 0 0 0 0 0 0 0 0 0 0 0 0 0 0 0 0 0 0 0 0 0 0 0 0 0 0 0 0 0 0 0
0 0 0 0 0 0 0 0 0 0 0 0 0 0 0 0 0 0 0 0 0 0 0 0 0 0 0 0 0 0 0 0 0 0 0 0 0 0 0 0 0 0 0 0
0 0 0 0 0 0 0 0 0 0 0 0 0 0 0 0 0 0 0 0 0 0 0 0 0 0 0 0 0 0 0 0 0 0 0 0 0 0 0 0 0 0 0 0
Wind_Speed
2 4 9 10 9 5 3 4 6 5 3 4 9 12 10 7 7 9 9 9 10 11 10 8 7 7 7 8 9 10 11 10 8 7 7 7 8 7 6 6 7 8 8 8
2 9 8 4 5 5 6 7 7 4 2 3 7 13 11 9 9 10 11 12 11 10 8 7 7 7 8 9 10 10 11 10 10 9 7 5 4 4 5 4 6 7 8 8
8 4 4 6 6 8 10 10 7 4 3 3 5 11 9 8 8 9 10 10 10 11 11 8 7 8 8 9 10 9 11 10 10 9 4 3 3 2 3 5 6 7 8 7
7 6 4 5 8 8 11 7 6 4 3 4 2 9 8 7 8 10 11 10 11 10 10 9 8 7 8 9 8 9 9 9 9 9 8 9 8 8 8 5 4 4 5 6
6 4 5 8 8 8 5 3 5 6 5 6 5 7 10 3 9 11 11 11 10 9 9 9 8 7 6 6 6 6 7 7 7 9 11 10 9 7 4 3 4 4 4 5
5 3 5 6 5 7 4 2 1 2 3 10 10 8 11 6 9 7 7 7 8 7 6 5 4 3 4 3 4 5 5 6 6 8 9 11 11 9 6 5 5 4 3 3
4 4 4 3 2 4 5 5 2 3 5 9 5 8 12 6 6 6 7 7 6 5 4 3 3 2 3 3 3 4 5 5 6 7 8 9 10 9 9 7 6 5 4 4
3 4 5 5 7 6 8 8 7 7 6 4 4 10 9 5 4 4 5 5 3 2 2 2 3 2 2 2 2 2 3 4 4 6 7 7 7 6 5 6 5 5 4 4
3 4 2 3 4 6 6 7 4 2 1 3 6 7 9 4 4 3 3 2 3 3 2 2 2 2 2 2 1 1 2 3 3 4 5 5 6 5 5 4 4 3 3 2
2 3 4 2 1 2 4 5 4 5 4 5 6 6 6 3 4 3 2 2 3 3 3 3 2 2 2 2 2 1 1 2 2 2 3 3 4 5 4 4 4 3 3 3
2 2 3 0 4 5 3 4 4 4 3 4 4 7 5 5 3 2 2 2 2 3 3 4 4 3 3 3 3 2 1 0 0 1 2 2 2 3 3 3 3 3 3 3
2 2 3 5 3 2 3 4 5 4 5 4 4 7 3 2 2 1 3 3 3 3 3 2 2 3 3 3 3 2 2 2 1 1 2 2 2 2 3 2 2 2 2 2
1 2 1 4 2 0 2 3 4 3 2 4 6 9 3 3 4 4 4 4 4 3 3 3 2 2 2 3 3 3 2 2 2 1 2 2 2 2 2 2 2 2 2 2
0 1 4 5 4 2 3 4 4 5 5 6 10 11 9 5 6 6 6 5 5 4 3 3 3 3 2 2 2 2 2 2 2 2 2 2 2 2 2 2 2 3 3 3
1 3 4 5 4 4 6 8 7 9 9 9 10 11 12 7 6 5 4 5 5 5 4 4 3 3 3 2 2 2 1 2 2 2 2 2 2 3 3 3 3 3 3 3
0 2 3 5 4 4 8 10 10 11 10 10 11 14 9 6 5 5 5 5 5 6 5 5 4 3 3 2 2 1 1 1 2 2 2 2 3 3 3 3 3 3 3 3
2 2 2 5 5 3 8 9 9 7 7 8 12 12 5 5 6 6 6 5 6 6 6 6 5 4 3 2 1 1 0 1 2 2 2 2 3 3 2 3 3 3 3 4
4 3 3 2 1 8 9 3 7 9 10 10 10 9 7 8 7 6 5 6 7 6 5 5 4 4 3 1 1 0 1 1 2 2 1 1 2 2 3 3 3 3 3 3
6 5 3 2 4 9 9 4 5 7 9 8 11 11 8 5 3 5 5 4 5 5 5 4 4 3 2 1 1 2 2 2 1 1 1 1 2 2 2 2 2 3 3 3
4 4 4 3 4 8 8 4 3 3 7 5 6 9 7 2 4 7 3 3 4 3 3 3 2 1 1 1 2 3 2 2 2 1 1 1 1 2 2 2 2 2 3 3
2 3 6 6 7 10 8 4 2 4 7 5 5 6 5 6 8 6 4 3 3 3 3 2 2 1 1 1 2 2 2 2 1 1 1 1 1 2 2 3 3 3 3 3
6 5 5 4 6 10 4 2 5 7 6 5 5 6 6 7 7 6 5 4 4 3 3 1 1 2 1 1 2 2 2 1 2 2 2 2 2 2 2 3 3 3 4 4
7 8 6 8 9 6 3 6 6 4 6 6 5 6 6 6 7 7 5 4 4 4 3 1 1 2 1 1 2 2 1 2 2 2 2 2 2 2 2 3 3 3 3 3
6 4 5 7 10 9 8 7 5 5 6 7 6 7 6 7 8 7 6 5 4 4 3 2 1 2 2 1 1 1 1 2 3 3 2 2 2 2 2 2 2 3 3 3
7 4 5 10 10 8 7 6 7 7 7 7 7 6 7 7 7 6 6 5 4 4 3 2 2 3 3 1 1 1 2 3 3 3 3 2 2 2 2 2 1 2 2 3
7 8 8 11 7 7 8 6 6 7 7 7 8 8 6 5 7 6 5 4 4 4 3 2 3 3 2 1 2 1 2 3 4 3 3 2 2 2 2 2 2 2 2 3
Wind_Direction
185 193 214 213 214 233 219 225 241 248 262 224 242 257 263 260 255 256 257 252 245 243 246 244 233 225 219 213 209 208 205 203 191 188 195 201 211 211 210 212 210 208 208 205
196 232 229 214 220 235 242 251 253 273 270 240 266 269 262 246 240 239 243 248 250 252 255 246 235 223 217 215 213 210 208 202 197 200 196 193 189 199 206 206 209 210 209 207
214 243 198 204 218 225 234 234 238 246 323 313 305 284 257 249 242 248 243 242 245 243 246 246 237 229 219 218 215 211 209 205 202 196 173 158 157 165 191 207 213 214 210 209
236 248 230 216 216 205 241 223 223 240 247 261 224 276 265 241 251 249 249 244 244 244 242 242 237 233 221 221 217 213 209 205 200 189 185 190 198 207 213 209 207 199 200 207
230 204 207 226 224 195 219 191 211 228 233 262 234 257 275 233 246 247 245 245 246 245 240 240 236 231 227 220 211 208 205 205 199 193 194 195 206 214 204 180 185 195 197 204
243 240 215 218 220 197 181 106 330 229 216 247 223 223 271 224 227 243 244 249 254 254 250 247 246 231 235 229 211 201 193 205 201 194 195 198 204 204 191 188 196 200 200 205
255 250 233 203 179 186 174 154 186 221 220 243 197 216 253 240 233 236 252 264 266 260 258 261 261 250 243 236 223 205 192 206 203 192 195 199 204 202 201 199 200 197 201 211
212 255 218 201 196 188 193 179 187 200 216 256 206 231 253 256 250 251 261 276 290 296 288 278 271 257 254 248 231 202 193 208 204 194 197 199 200 200 203 202 196 197 204 210
207 257 284 226 200 172 182 204 195 187 259 252 243 268 297 287 292 292 288 301 299 295 294 294 306 311 308 294 270 222 199 202 204 199 194 192 191 191 192 191 192 193 194 190
181 263 288 275 142 210 194 161 162 192 200 235 253 246 245 263 268 284 304 316 312 315 328 339 339 332 336 337 335 334 210 207 209 196 193 185 188 186 184 177 177 182 184 174
189 215 298 324 192 190 171 185 190 190 196 201 253 261 230 223 232 265 287 303 319 330 333 333 341 352 2 10 16 11 3 34 146 167 172 165 169 165 166 169 176 180 170 165
201 173 251 249 252 195 187 194 180 196 231 220 249 269 291 257 296 335 316 329 334 336 333 327 332 351 3 3 4 10 12 26 25 129 151 157 155 145 148 159 162 154 155 158
192 173 306 331 329 43 207 202 205 208 207 214 228 260 302 358 343 334 325 320 320 323 327 331 338 342 343 349 350 352 2 16 26 57 102 111 113 121 132 137 131 126 131 126
234 195 201 213 235 233 245 249 224 206 220 233 234 256 286 308 312 313 313 311 311 312 313 313 318 324 327 331 334 336 347 15 45 63 90 101 100 110 115 109 104 104 111 114
133 234 247 260 268 261 257 256 240 229 229 232 249 254 266 275 278 283 290 297 302 299 295 292 298 307 315 326 332 334 351 31 56 72 80 85 88 91 93 95 95 92 91 97
179 243 268 279 280 272 269 259 246 242 238 241 259 266 265 266 272 278 277 273 274 277 281 288 291 293 293 290 298 321 341 26 72 87 88 81 84 87 90 95 98 99 94 89
247 217 248 267 290 306 264 242 225 227 227 223 244 256 273 275 266 259 259 263 269 275 276 274 272 268 266 263 252 254 284 73 96 100 91 91 100 101 97 99 100 100 98 93
213 214 225 266 330 243 246 229 216 233 244 233 245 258 251 251 261 267 253 247 262 272 277 279 280 279 277 266 242 149 101 109 121 119 116 107 113 113 108 112 113 110 108 104
204 197 208 211 248 271 286 262 207 223 255 239 244 260 264 267 298 281 254 243 249 258 266 274 275 266 249 219 187 143 130 127 136 154 150 135 126 120 114 114 111 110 109 103
190 191 203 209 228 247 255 265 247 214 264 266 252 262 268 272 270 270 270 272 276 280 286 293 306 287 221 229 172 154 162 160 181 195 171 136 139 142 139 134 120 115 119 114
190 213 218 225 240 260 260 279 125 191 255 286 267 266 259 236 246 272 298 293 285 285 295 304 308 263 243 209 170 172 171 192 176 128 123 125 133 143 142 129 125 125 119 111
199 205 219 209 231 256 251 159 198 240 278 291 284 276 269 270 278 282 283 282 286 288 291 296 296 284 280 160 160 195 203 163 114 117 119 123 127 134 138 134 127 127 129 125
218 209 206 207 227 253 231 221 242 263 275 283 286 288 282 281 281 280 277 275 278 277 278 275 260 280 291 184 174 207 214 127 129 127 133 128 115 114 131 136 137 135 137 142
255 234 231 254 259 261 266 267 272 271 267 279 284 286 282 275 275 278 278 277 275 277 270 262 249 255 264 259 223 203 162 153 148 151 155 145 137 126 118 127 142 152 158 159
232 224 240 258 272 288 270 257 271 281 286 292 294 287 276 271 273 270 273 274 272 278 282 261 246 250 256 256 247 189 166 164 162 162 159 148 141 138 131 128 149 167 181 178
205 210 227 250 253 255 272 282 286 285 287 292 296 298 293 274 276 280 275 277 280 281 287 275 265 258 254 234 232 208 183 175 168 166 161 156 155 151 147 138 105 105 114 133